STARLINK-37641, 69445

Orbit data source: Space-Track

STARLINK-37641, 69445 is a payload satellite owned by SpaceX/Seattle (US) in LEO that was launched on Mon, 08 Jun 2026 UTC via an FALCON 9 launch vehicle from the Air Force Eastern Test Range (AFETR). Payload-class satellites include a variety of spacecraft equipped with specific instruments for various scientific and technological missions. These include communications satellites like Starlink; space stations such as the ISS; scientific satellites like the Hubble; Earth observation satellites from companies like Planet Labs, Umbra, and HawkEye 360; GPS; miniature CubeSats for education and research; and military/defense satellites.

Loading next visibility...
Identifier
69445, 2026-127C
Orbit
LEO
Country
Flag of USUS
Related business
Manufacturer
SpaceX/Seattle
Mission
Operational spacecraft
Bus & Motor
STARLINK V2MO, Unknown motor
Mass
575 kg wet, ~530 kg dry
Launch date (UTC)
2026-06-08 (2 weeks ago)
Launch vehicle
FALCON 9
Launch site
Air Force Eastern Test Range (AFETR)
Object type
Payload
Rocket body
Debris
Shape & HBR
Unknown
Radar Cross Section
Large (>1 m²)

Expand to show TLE details & history
Last TLE update: 12 hours ago

TLE from 12 hours ago
0 STARLINK-37641
1 69445U 26127C   26171.41668980 -.00096612  00000-0 -49046-3 0  9997
2 69445  53.1585 246.2856 0001105  88.6779 319.0950 15.80915253  3168
Epoch: 2026-06-20T10:00Z
TLE epoch observation values (Epoch: 2026-06-20T10:00:01.998Z)
Latitude
36.45745°
Longitude
-138.95864°
Altitude
330.148 km
Speed
7.716 km/s
True Right ascension
18h 38m 43s
True Declination
36° 16' 58"
Sunlit
Object was in full shadow at epoch
Visualization orbit readout
Latitude
Unknown
Longitude
Unknown
Altitude
Unknown
Speed
Unknown
Apparent Right ascension
Unknown
Apparent Declination
Unknown
Sunlit
N/A
Visualization observer readout
Local Sidereal Time
08:33:02
Azimuth
Unknown
Elevation
Unknown
Doppler factor
Unknown
Orbital elements
Apogee altitude
328.854 km
Perigee altitude
327.372 km
Semi-major axis
6,706.25 km
Eccentricity
0.00011
Inclination
53.1585°
RAAN
246.2856°
Arg. of periapsis
88.6779°
True anomaly
319.08671°
Mean anomaly
319.095°
Eccentric anomaly
319.09085°
Mean motion
3.95206 °/min
Orbital period
91.09 mins
BSTAR
-0.00049046
Loading maneuver chart data...
Computing Atmospheric mass density...
Loading historical data...
Loading historical data...
Loading historical data...
Loading historical data...
Loading historical data...
Loading historical data...
Loading historical data...

Documentation

Showing up to 5 results
|